Tiempo cada hora Al Jubayl

Hoy, 2 Agosto, Lunes

Tiempo Temperatura Precipitaciones Viento Presión Humedad
00:00 +38°C° 0 mm 3 mps 746 mmHg 24%
01:00 +38°C° 0 mm 3 mps 746 mmHg 24%
02:00 +37°C° 0 mm 3 mps 746 mmHg 25%
03:00 +37°C° 0 mm 2 mps 746 mmHg 26%
04:00 +37°C° 0 mm 2 mps 746 mmHg 25%
05:00 +37°C° 0 mm 3 mps 747 mmHg 23%
06:00 +38°C° 0 mm 3 mps 747 mmHg 22%
07:00 +40°C° 0 mm 3 mps 747 mmHg 19%
08:00 +43°C° 0 mm 3 mps 747 mmHg 16%
09:00 +46°C° 0 mm 3 mps 748 mmHg 13%
10:00 +47°C° 0 mm 3 mps 747 mmHg 11%
11:00 +49°C° 0 mm 2 mps 747 mmHg 9%
12:00 +50°C° 0 mm 2 mps 747 mmHg 7%
13:00 +51°C° 0 mm 3 mps 746 mmHg 8%
14:00 +51°C° 0 mm 4 mps 746 mmHg 8%
15:00 +52°C° 0 mm 5 mps 746 mmHg 8%
16:00 +49°C° 0 mm 5 mps 746 mmHg 14%
17:00 +46°C° 0 mm 5 mps 746 mmHg 20%
18:00 +43°C° 0 mm 4 mps 746 mmHg 26%
19:00 +42°C° 0 mm 4 mps 746 mmHg 27%
20:00 +41°C° 0 mm 4 mps 747 mmHg 27%
21:00 +39°C° 0 mm 3 mps 747 mmHg 28%
22:00 +40°C° 0 mm 4 mps 747 mmHg 26%
23:00 +40°C° 0 mm 4 mps 747 mmHg 24%

Mañana, 3 Agosto, Martes

Tiempo Temperatura Precipitaciones Viento Presión Humedad
00:00 +40°C° 0 mm 4 mps 747 mmHg 22%
01:00 +39°C° 0 mm 5 mps 746 mmHg 22%
02:00 +39°C° 0 mm 5 mps 746 mmHg 22%
03:00 +37°C° 0 mm 5 mps 746 mmHg 23%
04:00 +37°C° 0 mm 4 mps 747 mmHg 21%
05:00 +38°C° 0 mm 4 mps 747 mmHg 19%
06:00 +38°C° 0 mm 4 mps 747 mmHg 17%
07:00 +40°C° 0 mm 3 mps 748 mmHg 15%
08:00 +43°C° 0 mm 3 mps 748 mmHg 12%
09:00 +45°C° 0 mm 2 mps 748 mmHg 10%
10:00 +46°C° 0 mm 2 mps 748 mmHg 10%
11:00 +48°C° 0 mm 3 mps 748 mmHg 9%
12:00 +50°C° 0 mm 3 mps 748 mmHg 8%
13:00 +50°C° 0 mm 3 mps 747 mmHg 8%
14:00 +51°C° 0 mm 3 mps 747 mmHg 8%
15:00 +51°C° 0 mm 3 mps 747 mmHg 7%
16:00 +48°C° 0 mm 3 mps 747 mmHg 9%
17:00 +47°C° 0 mm 3 mps 747 mmHg 11%
18:00 +45°C° 0 mm 3 mps 747 mmHg 13%
19:00 +44°C° 0 mm 3 mps 747 mmHg 14%
20:00 +43°C° 0 mm 3 mps 748 mmHg 15%
21:00 +41°C° 0 mm 2 mps 748 mmHg 16%
22:00 +40°C° 0 mm 3 mps 748 mmHg 15%
23:00 +40°C° 0 mm 3 mps 748 mmHg 14%

Pasado mañana, 4 Agosto, Miércoles

Tiempo Temperatura Precipitaciones Viento Presión Humedad
00:00 +41°C° 0 mm 4 mps 748 mmHg 14%
01:00 +39°C° 0 mm 3 mps 748 mmHg 14%
02:00 +39°C° 0 mm 3 mps 748 mmHg 15%
03:00 +38°C° 0 mm 2 mps 748 mmHg 16%
04:00 +38°C° 0 mm 2 mps 749 mmHg 20%
05:00 +37°C° 0 mm 2 mps 749 mmHg 24%
06:00 +37°C° 0 mm 2 mps 750 mmHg 28%
07:00 +40°C° 0 mm 2 mps 750 mmHg 22%
08:00 +42°C° 0 mm 2 mps 750 mmHg 17%
09:00 +46°C° 0 mm 3 mps 750 mmHg 11%
10:00 +47°C° 0 mm 3 mps 750 mmHg 11%
11:00 +49°C° 0 mm 4 mps 750 mmHg 11%
12:00 +50°C° 0 mm 4 mps 749 mmHg 11%
13:00 +49°C° 0 mm 4 mps 749 mmHg 12%
14:00 +49°C° 0 mm 4 mps 749 mmHg 13%
15:00 +48°C° 0 mm 4 mps 749 mmHg 13%
16:00 +47°C° 0 mm 4 mps 749 mmHg 17%
17:00 +44°C° 0 mm 3 mps 749 mmHg 21%
18:00 +42°C° 0 mm 3 mps 749 mmHg 25%
19:00 +40°C° 0 mm 3 mps 749 mmHg 28%
20:00 +39°C° 0 mm 3 mps 749 mmHg 32%
21:00 +38°C° 0 mm 3 mps 749 mmHg 35%
22:00 +37°C° 0 mm 3 mps 749 mmHg 34%
23:00 +37°C° 0 mm 2 mps 749 mmHg 32%

5 Agosto, Jueves

Tiempo Temperatura Precipitaciones Viento Presión Humedad
00:00 +37°C° 0 mm 2 mps 749 mmHg 30%
01:00 +37°C° 0 mm 2 mps 749 mmHg 28%
02:00 +37°C° 0 mm 3 mps 748 mmHg 25%
03:00 +37°C° 0 mm 3 mps 748 mmHg 23%
04:00 +38°C° 0 mm 4 mps 749 mmHg 21%
05:00 +38°C° 0 mm 4 mps 749 mmHg 20%
06:00 +38°C° 0 mm 4 mps 749 mmHg 18%
07:00 +42°C° 0 mm 4 mps 749 mmHg 15%
08:00 +45°C° 0 mm 5 mps 749 mmHg 12%
09:00 +48°C° 0 mm 5 mps 749 mmHg 9%
10:00 +49°C° 0 mm 6 mps 749 mmHg 8%
11:00 +51°C° 0 mm 6 mps 749 mmHg 8%
12:00 +52°C° 0 mm 7 mps 749 mmHg 7%
13:00 +52°C° 0 mm 7 mps 748 mmHg 9%
14:00 +51°C° 0 mm 6 mps 748 mmHg 11%
15:00 +49°C° 0 mm 6 mps 748 mmHg 13%
16:00 +47°C° 0 mm 5 mps 748 mmHg 20%
17:00 +44°C° 0 mm 4 mps 748 mmHg 27%
18:00 +41°C° 0 mm 2 mps 748 mmHg 34%
19:00 +40°C° 0 mm 2 mps 748 mmHg 35%
20:00 +39°C° 0 mm 1 mps 748 mmHg 36%
21:00 +35°C° 0 mm 0 mps 748 mmHg 37%
22:00 +35°C° 0 mm 0 mps 748 mmHg 33%
23:00 +35°C° 0 mm 0 mps 747 mmHg 28%

6 Agosto, Viernes

Tiempo Temperatura Precipitaciones Viento Presión Humedad
00:00 +35°C° 0 mm 0 mps 747 mmHg 24%
01:00 +37°C° 0 mm 1 mps 747 mmHg 23%
02:00 +38°C° 0 mm 2 mps 747 mmHg 22%
03:00 +38°C° 0 mm 3 mps 747 mmHg 21%
04:00 +38°C° 0 mm 3 mps 747 mmHg 19%
05:00 +38°C° 0 mm 3 mps 747 mmHg 18%
06:00 +39°C° 0 mm 3 mps 748 mmHg 16%
07:00 +42°C° 0 mm 3 mps 748 mmHg 14%
08:00 +45°C° 0 mm 4 mps 748 mmHg 11%
09:00 +48°C° 0 mm 4 mps 748 mmHg 9%
10:00 +50°C° 0 mm 4 mps 748 mmHg 8%
11:00 +51°C° 0 mm 4 mps 748 mmHg 8%
12:00 +52°C° 0 mm 4 mps 748 mmHg 7%
13:00 +53°C° 0 mm 5 mps 747 mmHg 8%
14:00 +52°C° 0 mm 5 mps 747 mmHg 8%
15:00 +52°C° 0 mm 5 mps 747 mmHg 8%
16:00 +49°C° 0 mm 5 mps 747 mmHg 13%
17:00 +47°C° 0 mm 4 mps 746 mmHg 18%
18:00 +44°C° 0 mm 4 mps 746 mmHg 22%
19:00 +43°C° 0 mm 3 mps 747 mmHg 24%
20:00 +41°C° 0 mm 2 mps 747 mmHg 25%
21:00 +40°C° 0 mm 1 mps 747 mmHg 27%
22:00 +40°C° 0 mm 1 mps 747 mmHg 24%
23:00 +40°C° 0 mm 1 mps 747 mmHg 21%

7 Agosto, Sábado

Tiempo Temperatura Precipitaciones Viento Presión Humedad
00:00 +39°C° 0 mm 1 mps 746 mmHg 18%
01:00 +39°C° 0 mm 2 mps 746 mmHg 19%
02:00 +38°C° 0 mm 2 mps 746 mmHg 19%
03:00 +38°C° 0 mm 3 mps 746 mmHg 20%
04:00 +38°C° 0 mm 3 mps 747 mmHg 19%
05:00 +38°C° 0 mm 3 mps 747 mmHg 18%
06:00 +38°C° 0 mm 3 mps 748 mmHg 17%
07:00 +42°C° 0 mm 3 mps 748 mmHg 14%
08:00 +44°C° 0 mm 3 mps 748 mmHg 12%
09:00 +46°C° 0 mm 3 mps 749 mmHg 10%
10:00 +48°C° 0 mm 3 mps 749 mmHg 9%
11:00 +50°C° 0 mm 3 mps 748 mmHg 8%
12:00 +51°C° 0 mm 3 mps 748 mmHg 8%
13:00 +51°C° 0 mm 3 mps 748 mmHg 8%
14:00 +51°C° 0 mm 4 mps 747 mmHg 8%
15:00 +51°C° 0 mm 4 mps 747 mmHg 8%
16:00 +49°C° 0 mm 4 mps 747 mmHg 12%
17:00 +47°C° 0 mm 4 mps 747 mmHg 15%
18:00 +44°C° 0 mm 4 mps 747 mmHg 19%
19:00 +43°C° 0 mm 3 mps 747 mmHg 21%
20:00 +42°C° 0 mm 3 mps 748 mmHg 24%
21:00 +40°C° 0 mm 2 mps 748 mmHg 26%
22:00 +40°C° 0 mm 1 mps 748 mmHg 24%
23:00 +40°C° 0 mm 1 mps 748 mmHg 21%
Mostrar más

Necesitamos Su Consentimiento

Meteoprog y nuestros Proveedores de Servicios pueden almacenar y acceder a sus datos personales como cookies, identificadores de dispositivo u otras tecnologías similares de su dispositivo y procesar dichos datos para personalizar contenido y anuncios, además de ofrecer funciones de redes sociales y analizar el tráfico.

  • Almacenar y/o acceder a información en su dispositivo

    Se puede almacenar o acceder a cookies, identificadores de dispositivo u otra información de su dispositivo para los fines anteriormente indicados.

  • Anuncios y contenido personalizados, medición de anuncios y contenido, percepciones del público, y desarrollo de productos

    Los anuncios y el contenido pueden personalizarse en base a su perfil. Se pueden añadir más datos para personalizar mejor los anuncios y contenidos. Se puede medir el rendimiento de los anuncios y contenidos. Se puede obtener la percepción sobre el público que ha visto los anuncios y contenidos. Dichos datos pueden usarse para desarrollar o mejorar la experiencia del usuario, sistemas y software.

Al hacer clic en ‘Estoy De Acuerdo’ usted permitirá el uso de las cookies, identificadores de dispositivo, balizas web u otras tecnologías similares indicadas. Su configuración puede cambiarse desde el navegador de su dispositivo.

Para ciertos fines, los intereses legítimos pueden ser considerados por encima del consentimiento. Puede leer más sobre ello en nuestra Política de Privacidad y Cookies.